Weather History for FENTRESS NALF, VA

Change the Weather History Date:

Friday, December 27, 2013

  Actual Average (KORF) Record (KORF)
Temperature  
Mean Temperature 42 °F 42 °F  
Max Temperature 54 °F 49 °F 72 °F (1971)
Min Temperature 30 °F 34 °F 14 °F (1925)
Degree Days  
Heating Degree Days 23 23  
Month to date heating degree days 554  
Since 1 July heating degree days 1084  
Cooling Degree Days 0 0  
Month to date cooling degree days 0  
Year to date cooling degree days 1628  
Moisture  
Dew Point 26 °F    
Average Humidity 63    
Maximum Humidity 82    
Minimum Humidity 29    
Precipitation  
Precipitation 0.00 in 0.10 in 1.75 in (1892)
Month to date precipitation 2.88  
Year to date precipitation 46.15  
Sea Level Pressure  
Sea Level Pressure 30.41 in    
Wind  
Wind Speed 1 mph (NNE)    
Max Wind Speed 8 mph    
Max Gust Speed -    
Visibility 10 miles    
Events      
T = Trace of Precipitation, MM = Missing Value Source: NWS Daily Summary

Daily Weather History Graph

Daily Weather History Graph

Search for Another Location

Airport:

Trip Planner

Search our weather history database for the weather conditions in past years. The results will help you decide how hot, cold, wet, or windy it might be!

Date:

Astronomy

Dec. 27, 2013 Rise Set
Actual Time 7:15 AM EST 4:55 PM EST
Civil Twilight 6:46 AM EST 5:24 PM EST
Nautical Twilight 6:14 AM EST 5:57 PM EST
Astronomical Twilight 5:43 AM EST 6:28 PM EST
Moon 1:50 AM EST 1:00 PM EST
Length of Visible Light 10h 37m
Length of Day
9h 40m
Waning Crescent, 28% of the Moon is Illuminated
Dec 27
Waning Crescent
Jan 1
New
Jan 7
First Quarter
Jan 15
Full
Jan 24
Last Quarter

Hourly Weather History & Observations

Time (EST) Temp. Windchill Dew Point Humidity Pressure Visibility Wind Dir Wind Speed Gust Speed Precip Events Conditions
12:56 AM 30.9 °F - 26.1 °F 82% 30.37 in 10.0 mi Calm Calm - N/A   Clear
1:56 AM 32.0 °F - 25.0 °F 75% 30.38 in 9.0 mi Calm Calm - N/A   Clear
2:56 AM 30.9 °F - 25.0 °F 79% 30.38 in 7.0 mi Calm Calm - N/A   Clear
3:56 AM 30.0 °F - 24.1 °F 79% 30.38 in 10.0 mi Calm Calm - N/A   Clear
4:56 AM 30.9 °F - 25.0 °F 79% 30.39 in 9.0 mi Calm Calm - N/A   Clear
5:56 AM 30.0 °F - 24.1 °F 79% 30.40 in 10.0 mi Calm Calm - N/A   Clear
6:56 AM 30.0 °F - 23.0 °F 75% 30.42 in 9.0 mi Calm Calm - N/A   Clear
7:56 AM 32.0 °F - 26.1 °F 79% 30.43 in 8.0 mi Calm Calm - N/A   Clear
8:56 AM 39.0 °F - 32.0 °F 76% 30.44 in 8.0 mi Calm Calm - N/A   Clear
9:56 AM 48.0 °F - 36.0 °F 63% 30.47 in 10.0 mi North 5.8 mph - N/A   Clear
10:56 AM 51.1 °F - 30.9 °F 46% 30.46 in 10.0 mi NNE 8.1 mph - N/A   Clear
11:56 AM 52.0 °F - 23.0 °F 32% 30.44 in 10.0 mi NW 8.1 mph - N/A   Clear
12:56 PM 53.1 °F - 23.0 °F 31% 30.42 in 10.0 mi Variable 5.8 mph - N/A   Clear
1:56 PM 53.1 °F - 21.0 °F 29% 30.41 in 10.0 mi Variable 3.5 mph - N/A   Clear
2:56 PM 54.0 °F - 21.9 °F 29% 30.40 in 10.0 mi Calm Calm - N/A   Clear
3:56 PM 52.0 °F - 21.0 °F 30% 30.40 in 10.0 mi Calm Calm - N/A   Clear
4:56 PM 45.0 °F 42.6 °F 27.0 °F 49% 30.40 in 10.0 mi SE 4.6 mph - N/A   Clear
5:56 PM 41.0 °F - 28.0 °F 60% 30.40 in 10.0 mi Calm Calm - N/A   Clear
6:56 PM 39.0 °F - 27.0 °F 62% 30.42 in 10.0 mi Calm Calm - N/A   Clear
7:56 PM 36.0 °F - 28.0 °F 73% 30.43 in 10.0 mi Calm Calm - N/A   Clear
8:56 PM 35.1 °F - 27.0 °F 72% 30.44 in 10.0 mi Calm Calm - N/A   Clear
9:56 PM 33.1 °F - 25.0 °F 72% 30.44 in 10.0 mi Calm Calm - N/A   Clear
10:56 PM 35.1 °F - 27.0 °F 72% 30.43 in 10.0 mi Calm Calm - N/A   Clear
11:56 PM 32.0 °F - 26.1 °F 79% 30.41 in 10.0 mi Calm Calm - N/A   Clear